Meath Environmental Platform

Observations

Time Sensor AQI SAQ Temp °C Hum % Pres Pa CO μg/m³ H₂S μg/m³ NO μg/m³ NO₂ μg/m³ O₃ μg/m³ SO₂ μg/m³ CO₂e PPM VOC PPM PM1 μg/m³ PM2.5 μg/m³ PM4 μg/m³ PM10 μg/m³ TPS µm
Wednesday 12 August 2026
17:31 Trim Patrick St 3 37.2 30 69,754 0 6.78 0.06 12.84 85.26 25.71 3.71 10.09 11.1
17:30 Trim Patrick St 3 37.2 30 69,760 0 9.02 0.06 14.99 112.64 25.13 3.71 10.9 11.99
17:29 Trim Patrick St 3 37.2 30 69,746 0 13.08 0.03 12.84 101.9 26.69 3.71 10.09 11.1
17:28 Trim Patrick St 3 37.2 30 69,750 0 17.71 0.03 19.06 115.32 25.52 3.71 10.91 12
17:27 Trim Patrick St 3 37.3 30 69,754 0 6.98 0.01 12.97 94.97 25.7 2.86 8.51 9.36
17:26 Trim Patrick St 3 37.3 30 69,764 0 5.3 0.01 13.26 117.27 25.21 2.86 10.13 11.14
17:25 Trim Market St 3 36 30 66,718 0 14.47 0 17.22 98.98 1.09 2.85 6.05 7.52
17:25 Trim Patrick St 3 37.4 30 69,776 0 7.35 0 12.97 116.74 26.8 2.86 10.08 11.09
17:24 Trim Market St 3 36.1 30 66,702 0 6.03 0 13.18 87.31 1.35 2.85 6.05 6.66
17:24 Trim Patrick St 3 37.4 30 69,791 0 8.56 0 12.96 115.29 26.76 2.86 9.31 10.24
17:23 Trim Market St 3 36.2 29 66,744 0 8.04 0 13.77 83.24 1.56 2.14 4.97 5.46
17:23 Trim Patrick St 3 37.5 29 69,808 0 2.7 0 14.34 100.61 24.65 3.71 10.13 11.15
17:22 Trim Market St 3 36.2 29 66,764 0 11.64 0 15.32 83.97 1.67 2.14 6.06 6.67
17:22 Trim Patrick St 3 37.5 30 69,801 0 2 0 12.94 72.91 24.32 4.57 10.86 11.95
17:21 Trim Market St 3 36.3 29 66,760 0 10.44 0 13.66 89.32 1.82 2.14 6.06 7.52
17:21 Trim Patrick St 3 37.5 30 69,791 0 10.34 0 13.2 121.58 26.6 5.43 11.72 12.9
17:20 Trim Market St 3 36.4 29 66,760 0 11.92 0 16.61 82.33 1.95 3.56 6.06 6.67
17:20 Trim Patrick St 3 37.5 30 69,774 0 9.53 0 13.01 115.53 26.58 2.86 10.08 11.09
17:19 Trim Patrick St 3 37.6 29 69,789 0 8.67 0 13.38 80.86 25.29 3.71 10.14 11.15
17:18 Trim Patrick St 3 37.6 30 69,768 0 18.88 0 14.79 127.3 26.88 3.71 10.12 11.13